Flag for Philippines Weather past 2 weeks in Mabalacat, Philippines

Now
73 °F

Passing clouds.


Feels Like: 76 °F
Forecast: 70 / 91 °F
Wind: 2 mph from West

Location: Clarkfield Pampanga International Airport

Current Time: Mar 1, 2015 at 2:19:41 AM

Latest Report: Mar 1, 2015 at 2:00 AM


Visibility: N/A

Pressure: 29.98 "Hg

Humidity: 69%

Dew point: 63 °F

Location of MabalacatLocation

Historic Weather in Mabalacat — Graph

°F

Mabalacat temperature yesterday

Maximum temperature yesterday: 88 °F (at 2:00 PM)
Minimum temperature yesterday: 73 °F (at 3:00 AM)
Average temperature yesterday: 80 °F

Past Weeks' High & Low Weather Summary

 TemperatureHumidityPressure
High90 °F (Feb 27, 3:00 PM)100% (Feb 15, 2:00 AM)30.07 "Hg (Feb 15, 2:00 AM)
Low68 °F (Feb 23, 4:00 AM)38% (Feb 23, 1:00 PM)29.83 "Hg (Feb 17, 3:00 PM)
Average78 °F70%29.97 "Hg
* Reported Feb 14 1:00 AM — Mar 1 1:00 AM, Mabalacat, Weather by CustomWeather, © 2015

Note: Actual official high and low records may vary slightly from our data, if they occured in-between our weather recording intervals... More about our weather records

Advertising

Mabalacat weather history for previous 24 hours

 ConditionsComfort  
Time TempWeatherWind HumidityBarometerVisibility
1:00 AM
Sun, Mar 1
73 °FPassing clouds.5 mph74%30.01 "HgN/A
12:00 AM73 °FPassing clouds.5 mph74%30.01 "HgN/A
11:00 PM
Sat, Feb 28
75 °FPassing clouds.2 mph69%30.01 "HgN/A
10:00 PM77 °FPassing clouds.1 mph65%30.01 "HgN/A
9:00 PM77 °FPassing clouds.1 mph65%29.98 "HgN/A
8:00 PM79 °FPassing clouds.9 mph58%29.98 "HgN/A
5:00 PM84 °FPartly sunny.10 mph51%29.92 "HgN/A
4:00 PM86 °FPartly sunny.10 mph46%29.89 "HgN/A
3:00 PM86 °FBroken clouds.9 mph49%29.89 "HgN/A
2:00 PM88 °FBroken clouds.9 mph43%29.92 "HgN/A
1:00 PM86 °FScattered clouds.7 mph49%29.95 "HgN/A
12:00 PM86 °FScattered clouds.5 mph49%29.98 "HgN/A
11:00 AM84 °FScattered clouds.6 mph51%30.01 "HgN/A
10:00 AM82 °FScattered clouds.5 mph55%30.01 "HgN/A
9:00 AM81 °FPartly sunny.7 mph62%30.04 "HgN/A
8:00 AM77 °FPartly sunny.7 mph69%30.01 "HgN/A
7:00 AM75 °FScattered clouds.7 mph74%30.01 "HgN/A
6:00 AM75 °FPartly cloudy.8 mph74%29.98 "HgN/A
5:00 AM75 °FMostly cloudy.5 mph74%29.95 "HgN/A
4:00 AM73 °FPassing clouds.7 mph78%29.95 "HgN/A
3:00 AM73 °FPassing clouds.3 mph78%29.95 "HgN/A
2:00 AM75 °FPassing clouds.3 mph74%29.95 "HgN/A
Weather by CustomWeather, © 2015

See weather overviewHow to use our weather pages